Regional Weather Roundup
Issued by NWS

Home | Current Version | Previous Version | Text Only | Print | Product List | Glossary On
Versions: 1 2 3 4 5 6 7 8 9 10 11 12 13 14 15 16 17 18 19 20 21 22 23 24 25 26 27 28 29 30 31 32 33 34 35 36 37 38 39 40 41 42 43 44 45 46 47 48 49 50
000
ASUS43 KLOT 051221
RWRIL

ILLINOIS REGIONAL WEATHER ROUNDUP
NATIONAL WEATHER SERVICE CHICAGO/ROMEOVILLE IL
700 AM CDT WED AUG 05 2015

NOTE: "FAIR" INDICATES FEW OR NO CLOUDS BELOW 12,000 FEET WITH NO
SIGNIFICANT WEATHER AND/OR OBSTRUCTIONS TO VISIBILITY.

* THESE STATIONS ARE NOT UNDER NWS QUALITY CONTROL. THEY ALSO MAY NOT
  REPORT WEATHER SUCH AS PRECIPITATION OR FOG.

ILZ001-002-007-009-015-016-024-051300-
NORTHWEST ILLINOIS

CITY           SKY/WX    TMP DP  RH WIND       PRES   REMARKS
MOLINE         CLEAR     64  61  90 E3        30.03R
6HR MIN TEMP:  61; 6HR MAX TEMP:  65;

STERLING*      SUNNY     63  57  82 E5        30.01F
SAVANNA*       SUNNY     59  57  93 N3        30.04S
$$

ILZ003-004-008-010-011-017-018-051300-
NORTH CENTRAL ILLINOIS

CITY           SKY/WX    TMP DP  RH WIND       PRES   REMARKS
ROCKFORD       MOSUNNY   59  55  87 CALM      30.06F
6HR MIN TEMP:  55; 6HR MAX TEMP:  62;

FREEPORT*      SUNNY     58  56  93 CALM      30.07S
ROCHELLE*      SUNNY     58  55  91 CALM      30.06S
DE KALB*       SUNNY     59  56  90 CALM      30.07S
PERU*          SUNNY     62  57  82 NE5       30.05S
$$

ILZ005-006-012>014-019>023-051300-
NORTHEAST ILLINOIS

CITY           SKY/WX    TMP DP  RH WIND       PRES   REMARKS
CHICAGO-OHARE  MOSUNNY   67  59  75 N3        30.05S
6HR MIN TEMP:  61; 6HR MAX TEMP:  68;

CHICAGO-MIDWAY MOSUNNY   68  60  75 CALM      30.05R
6HR MIN TEMP:  65; 6HR MAX TEMP:  73;

AURORA         SUNNY     59  54  83 CALM      30.06S
6HR MIN TEMP:  54; 6HR MAX TEMP:  59;

LANSING*       SUNNY     61  59  94 CALM      30.06S
JOLIET*        SUNNY     65  60  86 CALM      30.05F
WAUKEGAN       SUNNY     63  58  83 NW3       30.04S
6HR MIN TEMP:  59; 6HR MAX TEMP:  64;

DUPAGE AIRPORT SUNNY     61  57  87 CALM      30.05S
6HR MIN TEMP:  56; 6HR MAX TEMP:  62;

KANKAKEE*      SUNNY     62  60  93 CALM      30.06S
WHEELING       SUNNY     63  58  83 S3        30.06S
6HR MIN TEMP:  58; 6HR MAX TEMP:  65;

MORRIS*        SUNNY     59  56  89 N6        30.04S
ROMEOVILLE*    SUNNY     63  59  85 NE3       30.06S
NORTHERLY ISL    N/A     71  59  65 W5          N/A
$$

LMZ740>746-051300-
SOUTHERN LAKE MICHIGAN

STATION/POSITION SKY/WX   TEMP    WIND        PRES    VSBY  WAVE
                          AIR SEA DIR/SP/G                  HT/PER
                          (F)     (DEG/KT/KT) (MB)    (MI)  (FT/S)
HARRISON CRIB              69     280/  5/  6   N/A
BURNHAM HARBOR             72     290/  3/  6   N/A
CALUMET HARBOR             65      CALM  /  2   N/A
BURNS HARBOR               64     180/  6/  6 1017.9R
MICHIGAN CITY              66     170/  4/  5   N/A
MICHIGAN CITY 6N           70 73  250/  6/  6   N/A           1
ST. JOSEPH                 71 74  290/  6/  8   N/A           1
$$

ILZ025>027-034>036-040-047-049-050-058-095>099-051300-
WEST-CENTRAL ILLINOIS

CITY           SKY/WX    TMP DP  RH WIND       PRES   REMARKS
QUINCY         PTCLDY    67  63  87 CALM      30.01S
GALESBURG*     MOCLDY    64  63  97 CALM      30.03S
MACOMB*        PTCLDY    64  63  99 NE3       30.04S
JACKSONVILLE*  CLEAR     67  64  89 E5        30.01S
PITTSFIELD*    PTCLDY    68  64  87 CALM      30.03R
$$

ILZ028>032-037-038-041>044-048-051>054-059>061-051300-
CENTRAL ILLINOIS

CITY           SKY/WX    TMP DP  RH WIND       PRES   REMARKS
PONTIAC        SUNNY     62  61  99 CALM      30.05S FOG
BLOOMINGTON    SUNNY     65  62  90 E5        30.06R
DECATUR        SUNNY     67  60  78 SE8       30.03S
PEORIA         SUNNY     69  63  81 NE5       30.03S
6HR MIN TEMP:  66; 6HR MAX TEMP:  69;

LACON*         SUNNY     62  60  93 CALM      30.03S
LINCOLN*       SUNNY     65  61  88 CALM      30.03R
SPRINGFIELD    CLEAR     69  62  78 SE8       30.02S
6HR MIN TEMP:  64; 6HR MAX TEMP:  69;

TAYLORVILLE    SUNNY     66  63  88 E7        30.02S
$$

ILZ033-039-045-046-055>057-062-063-051300-
EAST-CENTRAL ILLINOIS

CITY           SKY/WX    TMP DP  RH WIND       PRES   REMARKS
CHAMPAIGN      SUNNY     65  61  87 E5        30.04S
DANVILLE*      SUNNY     62  60  92 CALM      30.03R
RANTOUL*       SUNNY     67  61  81 CALM      30.05R
MATTOON        SUNNY     65  60  84 E3        30.03S
PARIS*         SUNNY     63  63  99 CALM      30.05S
$$

ILZ079-100>102-051300-
SOUTHWEST ILLINOIS

CITY           SKY/WX    TMP DP  RH WIND       PRES   REMARKS
ALTON          CLOUDY    70  68  94 VRB6      30.03S
BELLEVILLE     LGT RAIN  68  68 100 E2        30.01F
CAHOKIA*       LGT RAIN  70  67  90 S7        30.01F
SPARTA*        RAIN      67  66  97 NE3       30.04S
$$

ILZ064>066-069>071-074>076-080>082-084>086-088>090-092>094-051300-
SOUTH-CENTRAL ILLINOIS

CITY           SKY/WX    TMP DP  RH WIND       PRES   REMARKS
CARBONDALE     LGT RAIN  71  69  93 NW6       30.02R
6HR MIN TEMP:  70; 6HR MAX TEMP:  73; 6HR PCP:  0.02;

CAIRO*         CLOUDY    74  74  98 SW3       29.99R
EFFINGHAM*     PTSUNNY   68  64  85 NE3       30.04R THUNDER
MARION         LGT RAIN  72  70  94 E6        30.03R
MT. VERNON     CLOUDY    70  64  83 NW6       30.04R
CENTRALIA*     HVY RAIN  69  66  88 W14G21    30.06R
SALEM*         PTSUNNY   72  69  90 SW8       30.06R
METROPOLIS*    MOCLDY    73  73 100 CALM      29.99S
$$

ILZ067-068-072-073-078-083-087-091-051300-
SOUTHEAST ILLINOIS

CITY           SKY/WX    TMP DP  RH WIND       PRES   REMARKS
LAWRENCEVILLE  LGT RAIN  70  67  90 NE9       30.02F
FLORA*         PTSUNNY   70  67  92 SE6       30.03R
FAIRFIELD*     TSTM      69  68  96 E8        30.00F
HARRISBURG*    PTSUNNY   71  71 100 NE7       30.04R FOG
ROBINSON*      MOSUNNY   68  67  98 NE6       30.04F FOG
CARMI*         CLOUDY    70  65  82 NE5       30.02S
$$

ABBREVIATIONS USED IN REMARKS
   TC - TEMPERATURE IN CELSIUS
  WCI - WIND CHILL INDEX
   HX - HEAT INDEX
  VSB - VISIBILITY
$$




USA.gov is the U.S. government's official web portal to all federal, state and local government web resources and services.